SCOUT B DEB, 2800

Orbit data source: Space-Track

SCOUT B DEB, 2800 is space debris in LEO originally from a launch on Thu, 04 Aug 1966 UTC launched from the Air Force Western Test Range (AFWTR). Debris objects in space refer to the collection of defunct objects orbiting the Earth. Examples of debris include non-operational satellites, rocket bodies, and fragments generated from explosions, collisions, or faulty payload assembly.

Loading next visibility...
SCOUT B DEB details
Identifier
2800, 1966-070D
Orbit
LEO
Last TLE update9 hours ago
Origin
Flag of USUSAF SSD (US)
ManufacturerUnknown
MissionSpacecraft
Bus & MotorUnknown
MassUnknown
Launch date (UTC)
1966-08-04 (59 years ago)
Launch vehicleUnknown
Launch site
Air Force Western Test Range (AFWTR)
Object type
Payload
Rocket body
Debris
Shape & HBRUnknown
Radar Cross SectionSmall (<0.1 m²)

Expand to show TLE details & history

TLE from 9 hours ago
0 SCOUT B DEB
1  2800U 66070D   25037.68911972  .00010179  00000-0  13405-2 0  9992
2  2800  81.4028 249.4833 1424014  54.5347 318.0420 12.34836266523405
Epoch: 2025-02-06T16:32Z
Definitive object data (Epoch: 2025-02-06T16:32:19.943Z)
Latitude-0.00015°
Longitude-135.66192°
Altitude778.04 km
Speed7.812 km/s
True Right ascension16h 37m 55s
True Declination0° 00' 01"
Sunlit
Object was in daylight at TLE epoch
Visualization TLE readout
Latitude-14.5902°
Longitude46.31877°
Altitude2,335.674 km
Speed6.412 km/s
Apparent Right ascension06h 22m 15s
Apparent Declination-56° 01' 35"
Sunlit
Object is in daylight
Visualization observer readout
Local Sidereal Time03:23:34
Azimuth156.208° SSE
Elevation-13.139°
Doppler factor1
Orbital elements
Apogee altitude2,651.44 km
Perigee altitude400.35 km
Semi-major axis7,904.032 km
Eccentricity0.1424014
Inclination81.4028°
RAAN249.4833°
Arg. of periapsis54.5347°
True anomaly305.57998°
Mean anomaly318.042°
Eccentric anomaly311.97644°
Mean motion3.08866 °/min
BSTAR0.0013405
Orbital period116.56 mins
Loading maneuver chart data...
Loading historical data...
Loading historical data...
Loading historical data...
Loading historical data...
Loading historical data...
Loading historical data...
Loading historical data...
Other satellites on launch #70 in the year 1966 (1966-08-04 UTC)

SCOUT B DEB Visibility forecast

Observer location: undefined°, undefined

Span
Click to sort rows by Start time (UTC) header in descending order
Start Az.
Max El. time (UTC)
Max El. Az.
Max El.
End time (UTC)
End Az.
14 mins2025-02-07 02:46:22.277Z331.579° NNW2025-02-07 02:52:22.277Z260.799° W33.318°2025-02-07 03:00:22.277Z202.136° SSW
9 mins2025-02-08 00:11:22.277Z44.903° NE2025-02-08 00:14:22.277Z76.322° E19.608°2025-02-08 00:20:22.277Z118.479° SE
|